Timestamp[UTC];2m Lufttemperatur [degC] (tas);Stations-Luftdruck [Pa] (ps);relative Luftfeuchtigkeit [%] (hurs);spezifische Luftfeuchtigkeit [kg/kg] (huss);Niederschlagsmenge [mm] (pr);Windgeschwindigkeit in 2m [m/s] (sfcWind);Windrichtung [deg];maximale Windgeschwindigkeit [m/s] (wsgsmax);u-Windkomponente [m/s] (uas);v-Windkomponente [m/s] (vas);Sonneneinstrahlung [W/m2];Blitzrate [n];Blitzentfernung [km];Bodenfeuchte in 5cm Tiefe [vol%];Bodenfeuchte in 15cm Tiefe [vol%];Bodenfeuchte in 30cm Tiefe [vol%];Bodenfeuchte in 60cm Tiefe [vol%];Bodentemperatur in 5cm Tiefe [degC];Bodentemperatur in 15cm Tiefe [degC];Bodentemperatur in 30cm Tiefe [degC];Bodentemperatur in 60cm Tiefe [degC];Matrixpotential in 30cm Tiefe [kPa];Bodenfeuchte aus CRNS [vol%] (mrso);Neutronen Anzahl [N/h]
2021-09-01 00:00:00;14,6;102472;87;0,0089;0,0;1,8;177;3,0;1,82;-0,04;0;0;0;19,8;21,3;22,1;17,0;16,3;16,4;16,3;16,1;-44,5;17,5;1450
2021-09-01 01:00:00;14,5;102463;89;0,009;0,0;0,8;335;1,6;0,7;-0,27;0;0;0;19,8;21,3;22,1;17,0;16,2;16,3;16,3;16,1;-44,4;17,5;1479
2021-09-01 02:00:00;14,4;102460;91;0,0091;0,0;0,5;301;1,2;0,26;-0,4;0;0;0;19,8;21,3;22,1;17,0;16,2;16,3;16,2;16,1;-44,2;17,5;1416
2021-09-01 03:00:00;14,3;102465;92;0,0092;0,0;0,6;236;1,4;0,43;-0,33;0;0;0;19,7;21,3;22,0;17,0;16,2;16,3;16,2;16,1;-44,1;17,5;1474
2021-09-01 04:00:00;14,2;102473;94;0,0093;0,0;0,5;303;1,2;0,27;-0,45;0;0;0;19,8;21,3;22,0;17,0;16,2;16,3;16,2;16,1;-44,0;17,5;1347
2021-09-01 05:00:00;14,2;102488;95;0,0093;0,0;0,8;286;1,6;0,2;-0,72;6;0;0;19,7;21,3;22,0;17,0;16,1;16,3;16,2;16,1;-43,8;17,4;1440
2021-09-01 06:00:00;14,3;102510;96;0,0095;0,0;0,9;274;1,7;0,06;-0,85;29;0;0;19,7;21,3;22,0;17,0;16,1;16,3;16,1;16,1;-43,6;17,2;1423
2021-09-01 07:00:00;14,5;102547;94;0,0094;0,0;1,1;322;2,4;0,86;-0,57;51;0;0;19,7;21,3;22,0;17,0;16,1;16,2;16,1;16,1;-43,5;17,2;1489
2021-09-01 08:00:00;14,6;102607;91;0,0092;0,0;1,4;336;2,7;1,28;-0,52;89;0;0;19,7;21,3;22,0;17,0;16,2;16,2;16,1;16,1;-43,3;17,0;1483
2021-09-01 09:00:00;15,0;102640;87;0,009;0,0;1,3;329;2,7;1,13;-0,65;143;0;0;19,6;21,3;22,0;17,0;16,2;16,2;16,1;16,1;-43,2;17,0;1499
2021-09-01 10:00:00;15,4;102648;84;0,009;0,0;1,0;332;2,2;0,87;-0,44;217;0;0;19,6;21,3;22,0;17,0;16,3;16,2;16,1;16,1;-43,2;17,0;1446
2021-09-01 11:00:00;15,9;102623;81;0,0089;0,0;1,0;271;2,6;0,57;0,26;275;0;0;19,6;21,3;22,0;17,0;16,5;16,2;16,2;16,1;-43,2;17,1;1487
2021-09-01 12:00:00;16,3;102615;78;0,0087;0,0;1,1;79;2,2;0,2;0,92;227;0;0;19,5;21,3;22,0;17,0;16,6;16,2;16,2;16,1;-43,2;16,9;1479
2021-09-01 13:00:00;16,6;102587;75;0,0086;0,0;1,1;58;2,4;0,56;0,74;233;0;0;19,5;21,3;21,9;17,0;16,7;16,2;16,3;16,1;-43,2;16,9;1522
2021-09-01 14:00:00;16,8;102577;73;0,0086;0,0;0,9;168;1,9;0,41;0,57;182;0;0;19,4;21,3;21,9;17,0;16,8;16,2;16,4;16,1;-43,2;16,8;1487
2021-09-01 15:00:00;16,9;102548;74;0,0087;0,0;0,9;268;1,8;0,88;-0,01;111;0;0;19,4;21,3;21,9;17,0;16,8;16,3;16,4;16,1;-43,2;16,7;1520
2021-09-01 16:00:00;16,8;102510;75;0,0088;0,0;0,7;91;1,3;-0,01;0,66;71;0;0;19,4;21,3;21,9;17,0;16,8;16,3;16,5;16,1;-43,2;16,7;1532
2021-09-01 17:00:00;16,5;102502;77;0,0088;0,0;1,0;198;1,5;-0,73;-0,23;33;0;0;19,3;21,3;21,9;17,0;16,8;16,3;16,5;16,1;-43,0;16,4;1583
2021-09-01 18:00:00;15,9;102530;85;0,0093;0,0;0,5;200;1,0;-0,46;-0,14;2;0;0;19,3;21,4;21,9;17,0;16,7;16,3;16,5;16,1;-43,0;16,4;1451
2021-09-01 19:00:00;15,6;102560;87;0,0094;0,0;0,6;262;1,1;-0,03;-0,44;0;0;0;19,3;21,4;21,9;17,0;16,7;16,3;16,5;16,1;-42,8;16,4;1488
2021-09-01 20:00:00;14,8;102560;93;0,0095;0,0;0,5;252;1,0;-0,16;-0,48;0;0;0;19,3;21,4;21,9;17,0;16,6;16,4;16,5;16,1;-42,7;16,4;1465
2021-09-01 21:00:00;12,8;102560;95;0,0086;0,0;0,4;233;0,8;-0,16;-0,2;0;0;0;19,3;21,4;21,9;17,0;16,2;16,4;16,4;16,1;-42,6;16,4;1457
2021-09-01 22:00:00;11,9;102567;97;0,0082;0,0;0,3;274;0,5;0,03;-0,23;0;0;0;19,3;21,4;21,9;17,0;15,8;16,4;16,3;16,1;-42,4;16,3;1410
2021-09-01 23:00:00;11,3;102545;98;0,0079;0,0;0,4;268;0,6;0,17;-0,11;0;0;0;19,3;21,4;21,8;17,0;15,4;16,4;16,1;16,1;-42,3;16,2;1512
2021-09-02 00:00:00;10,6;102540;98;0,0077;0,0;0,4;284;0,6;0,12;-0,14;0;0;0;19,2;21,4;21,8;17,0;15,2;16,3;16,0;16,1;-42,2;16,1;1450
2021-09-02 01:00:00;9,8;102530;100;0,0074;0,0;0,2;139;0,4;-0,08;0,16;0;0;0;19,2;21,4;21,8;17,0;15,0;16,3;15,8;16,1;-42,1;16,0;1529
2021-09-02 02:00:00;9,3;102540;100;0,0071;0,0;0,4;149;0,6;-0,29;0,18;0;0;0;19,2;21,4;21,8;17,0;14,7;16,2;15,6;16,1;-42,0;15,9;1507
2021-09-02 03:00:00;9,2;102525;98;0,007;0,0;0,4;286;0,7;0,29;-0,11;0;0;0;19,2;21,4;21,8;17,0;14,6;16,1;15,5;16,1;-41,8;15,7;1490
2021-09-02 04:00:00;9,1;102520;99;0,007;0,0;0,3;292;0,5;0,1;-0,24;0;0;0;19,2;21,4;21,8;17,0;14,4;16,0;15,3;16,1;-41,7;15,7;1528
2021-09-02 05:00:00;8,4;102508;100;0,0067;0,0;0,4;137;0,5;-0,27;0,24;30;0;0;19,1;21,4;21,8;17,0;14,2;16,0;15,2;16,1;-41,6;15,6;1494
2021-09-02 06:00:00;10,1;102510;100;0,0075;0,0;0,5;63;1,0;0,24;0,44;138;0;0;19,2;21,4;21,8;17,0;14,3;15,9;15,1;16,1;-41,5;15,6;1429
2021-09-02 07:00:00;12,6;102517;100;0,0089;0,0;1,1;59;1,8;0,58;0,98;277;0;0;19,2;21,4;21,8;17,0;14,6;15,8;15,0;16,1;-41,3;15,3;1507
2021-09-02 08:00:00;15,6;102540;98;0,0106;0,0;1,7;74;3,4;0,42;1,59;390;0;0;19,1;21,4;21,8;17,0;14,9;15,8;15,1;16,1;-41,2;15,3;1517
2021-09-02 09:00:00;16,6;102545;90;0,0103;0,0;2,2;89;3,6;0,02;2,17;314;0;0;19,1;21,4;21,8;17,0;15,2;15,7;15,2;16,1;-41,2;15,2;1547
2021-09-02 10:00:00;17,8;102510;85;0,0105;0,0;1,4;81;2,9;0,19;1,36;416;0;0;19,1;21,4;21,8;17,0;15,6;15,7;15,3;16,1;-41,3;15,0;1486
2021-09-02 11:00:00;18,3;102477;82;0,0105;0,0;1,7;52;3,2;1,07;1,28;361;0;0;19,0;21,4;21,7;17,0;15,8;15,7;15,5;16,0;-41,4;14,9;1540
2021-09-02 12:00:00;19,0;102443;79;0,0106;0,0;2,1;34;3,8;1,67;1,17;432;0;0;19,0;21,4;21,7;17,0;16,0;15,7;15,6;16,0;-41,5;14,9;1526
2021-09-02 13:00:00;19,9;102423;76;0,0108;0,0;2,0;50;4,2;1,27;1,52;462;0;0;18,9;21,4;21,7;17,0;16,2;15,7;15,7;16,0;-41,7;14,9;1606
2021-09-02 14:00:00;20,4;102365;72;0,0106;0,0;2,1;48;4,1;1,32;1,52;398;0;0;18,8;21,4;21,6;17,0;16,4;15,8;15,9;16,0;-41,9;15,0;1601
2021-09-02 15:00:00;20,5;102310;70;0,0103;0,0;2,0;60;3,6;0,95;1,72;280;0;0;18,7;21,4;21,6;17,0;16,5;15,8;16,0;16,0;-42,0;15,1;1568
2021-09-02 16:00:00;20,4;102255;70;0,0103;0,0;1,6;69;2,9;0,55;1,45;236;0;0;18,7;21,4;21,6;17,0;16,5;15,9;16,1;16,0;-42,0;15,0;1615
2021-09-02 17:00:00;19,6;102188;73;0,0102;0,0;1,4;54;2,3;0,68;1,06;78;0;0;18,6;21,4;21,6;17,0;16,5;15,9;16,2;16,0;-42,0;15,0;1581
2021-09-02 18:00:00;18,0;102177;79;0,0099;0,0;1,1;19;2,0;1,06;0,39;6;0;0;18,6;21,4;21,5;17,0;16,4;16,0;16,2;16,0;-41,9;15,0;1706
2021-09-02 19:00:00;16,6;102190;84;0,0096;0,0;0,7;38;1,2;0,55;0,44;0;0;0;18,6;21,4;21,5;17,0;16,1;16,0;16,2;15,9;-41,8;14,8;1550
2021-09-02 20:00:00;15,7;102175;87;0,0095;0,0;1,0;19;1,5;0,91;0,3;0;0;0;18,5;21,4;21,5;17,0;15,8;16,0;16,1;16,0;-41,7;14,8;1531
2021-09-02 21:00:00;14,8;102183;91;0,0093;0,0;0,9;26;1,5;0,77;0,39;0;0;0;18,6;21,4;21,5;17,0;15,6;16,1;16,0;15,9;-41,7;14,8;1612
2021-09-02 22:00:00;14,0;102162;94;0,0091;0,0;0,8;38;1,4;0,58;0,48;0;0;0;18,5;21,4;21,5;17,0;15,4;16,1;15,9;15,9;-41,6;14,6;1516
2021-09-02 23:00:00;13,7;102127;95;0,0091;0,0;1,1;63;1,7;0,47;0,94;0;0;0;18,5;21,4;21,5;17,0;15,2;16,0;15,7;16,0;-41,5;14,2;1570
2021-09-03 00:00:00;13,3;102098;96;0,009;0,0;0,9;60;1,4;0,43;0,77;0;0;0;18,5;21,4;21,5;17,0;15,1;16,0;15,7;16,0;-41,4;13,9;1481
2021-09-03 01:00:00;12,6;102078;98;0,0087;0,0;0,9;66;1,4;0,37;0,87;0;0;0;18,5;21,4;21,5;17,0;15,0;16,0;15,6;16,0;-41,3;13,8;1532
2021-09-03 02:00:00;12,1;102040;98;0,0085;0,0;0,6;73;0,9;0,17;0,57;0;0;0;18,5;21,4;21,5;17,0;14,8;15,9;15,5;16,0;-41,3;13,8;1469
2021-09-03 03:00:00;11,8;102012;99;0,0084;0,0;0,6;47;0,9;0,34;0,48;0;0;0;18,5;21,4;21,5;17,0;14,7;15,9;15,4;16,0;-41,2;13,9;1595
2021-09-03 04:00:00;11,4;101982;100;0,0082;0,04;0,6;36;1,1;0,46;0,34;0;0;0;18,5;21,4;21,5;17,0;14,5;15,8;15,3;16,0;-41,2;13,8;1559
2021-09-03 05:00:00;11,2;101963;100;0,0081;0,02;0,7;68;1,1;0,25;0,61;29;0;0;18,4;21,4;21,5;17,0;14,4;15,8;15,2;16,0;-41,1;13,7;1586
2021-09-03 06:00:00;12,4;101965;100;0,0088;0,02;1,2;66;2,1;0,48;1,1;135;0;0;18,4;21,4;21,5;17,0;14,5;15,7;15,1;16,0;-41,1;13,5;1572
2021-09-03 07:00:00;15,0;101960;100;0,0104;0,0;1,6;72;2,7;0,49;1,49;269;0;0;18,4;21,4;21,4;17,0;14,8;15,7;15,1;15,9;-41,0;13,7;1606
2021-09-03 08:00:00;17,1;101953;94;0,0112;0,0;2,1;80;3,4;0,29;2,01;384;0;0;18,4;21,5;21,4;17,0;15,1;15,6;15,1;15,9;-40,9;13,5;1594
2021-09-03 09:00:00;19,2;101947;85;0,0116;0,0;2,2;95;4,1;-0,22;2,2;487;0;0;18,4;21,4;21,4;17,0;15,5;15,6;15,2;15,9;-41,0;13,6;1733
2021-09-03 10:00:00;20,6;101907;78;0,0116;0,0;2,1;84;3,6;0,14;2,04;533;0;0;18,3;21,4;21,4;17,0;15,9;15,6;15,4;15,9;-41,2;13,6;1847
2021-09-03 11:00:00;21,4;101863;74;0,0115;0,0;1,8;61;3,9;0,84;1,5;588;0;0;18,2;21,4;21,3;17,0;16,2;15,6;15,6;15,9;-41,4;13,6;1781
2021-09-03 12:00:00;22,1;101808;70;0,0113;0,0;2,2;64;4,5;0,94;2,0;593;0;0;18,1;21,4;21,3;17,0;16,4;15,7;15,8;15,9;-41,8;13,6;1661
2021-09-03 13:00:00;22,4;101777;67;0,0112;0,0;2,1;45;4,1;1,42;1,45;559;0;0;18,0;21,4;21,2;17,0;16,6;15,7;15,9;15,9;-42,1;13,5;1687
2021-09-03 14:00:00;22,6;101710;65;0,011;0,0;2,1;60;3,9;0,9;1,68;478;0;0;18,0;21,3;21,2;17,0;16,7;15,8;16,1;15,9;-42,3;13,4;1647
2021-09-03 15:00:00;22,4;101650;66;0,0109;0,0;2,0;63;3,8;0,89;1,78;346;0;0;17,9;21,3;21,2;17,0;16,8;15,9;16,2;15,9;-42,4;13,3;1740
2021-09-03 16:00:00;22,1;101603;65;0,0106;0,0;2,2;65;3,6;0,91;2,01;221;0;0;17,8;21,3;21,1;17,0;16,8;15,9;16,3;15,9;-42,5;13,3;1775
2021-09-03 17:00:00;21,0;101600;68;0,0103;0,0;1,6;49;2,9;1,0;1,2;94;0;0;17,8;21,3;21,1;17,0;16,8;16,0;16,3;15,9;-42,5;13,3;1752
2021-09-03 18:00:00;19,2;101583;75;0,0103;0,0;1,6;25;2,5;1,37;0,67;8;0;0;17,8;21,3;21,1;17,0;16,7;16,0;16,4;15,8;-42,5;13,2;1692
2021-09-03 19:00:00;17,6;101622;82;0,0101;0,0;1,7;27;3,7;1,53;0,8;0;0;0;17,8;21,4;21,1;17,0;16,5;16,1;16,4;15,9;-42,3;13,2;1706
2021-09-03 20:00:00;16,1;101637;87;0,0098;0,0;1,5;39;2,9;1,18;0,97;0;0;0;17,7;21,4;21,1;17,0;16,4;16,1;16,3;15,9;-42,3;13,3;1578
2021-09-03 21:00:00;15,1;101653;91;0,0096;0,0;1,3;32;2,7;1,11;0,7;0;0;0;17,7;21,4;21,1;17,0;16,2;16,1;16,3;15,9;-42,2;13,3;1615
2021-09-03 22:00:00;14,3;101678;94;0,0095;0,0;1,7;49;3,1;1,11;1,3;0;0;0;17,7;21,4;21,1;17,0;16,1;16,2;16,2;15,9;-42,1;13,6;1597
2021-09-03 23:00:00;13,6;101665;97;0,0093;0,0;1,8;57;3,2;0,96;1,5;0;0;0;17,7;21,4;21,0;17,0;16,0;16,2;16,1;15,9;-42,0;14,1;1607
2021-09-04 00:00:00;12,9;101643;99;0,009;0,0;1,8;61;3,2;0,84;1,58;0;0;0;17,7;21,4;21,0;17,0;15,9;16,1;16,1;15,9;-42,0;14,3;1640
2021-09-04 01:00:00;12,8;101618;100;0,0091;0,0;2,5;73;4,6;0,71;2,39;0;0;0;17,7;21,4;21,0;17,0;15,9;16,1;16,0;15,9;-42,0;14,3;1663
2021-09-04 02:00:00;13,0;101620;100;0,0092;0,0;2,4;73;4,1;0,67;2,32;0;0;0;17,7;21,4;21,0;17,0;15,9;16,1;16,0;15,9;-41,9;14,3;1619
2021-09-04 03:00:00;12,6;101615;100;0,009;0,0;2,8;68;4,6;1,02;2,59;0;0;0;17,7;21,4;21,0;17,0;15,8;16,1;15,9;15,9;-41,8;14,1;1656
2021-09-04 04:00:00;12,2;101622;100;0,0087;0,0;2,8;75;5,1;0,72;2,71;0;0;0;17,6;21,4;21,0;17,0;15,8;16,1;15,9;15,9;-41,8;14,1;1614
2021-09-04 05:00:00;12,2;101650;100;0,0087;0,0;2,7;74;4,2;0,77;2,58;4;0;0;17,6;21,4;21,0;17,0;15,7;16,0;15,9;15,9;-41,6;14,0;1655
2021-09-04 06:00:00;12,4;101670;100;0,0088;0,0;2,9;66;4,6;1,18;2,62;26;0;0;17,6;21,4;21,0;17,0;15,7;16,0;15,8;16,0;-41,6;14,0;1625
2021-09-04 07:00:00;12,6;101685;100;0,009;0,0;2,8;77;4,7;0,59;2,73;74;0;0;17,6;21,4;21,0;17,0;15,7;16,0;15,8;15,9;-41,5;14,0;1609
2021-09-04 08:00:00;12,9;101720;99;0,0091;0,0;3,1;80;5,4;0,5;3,02;137;0;0;17,6;21,4;21,0;17,0;15,7;16,0;15,8;15,9;-41,5;14,0;1627
2021-09-04 09:00:00;13,5;101752;97;0,0091;0,0;2,9;62;4,7;1,32;2,55;201;0;0;17,6;21,4;21,0;17,0;15,7;15,9;15,7;15,9;-41,5;13,9;1566
2021-09-04 10:00:00;14,4;101723;95;0,0096;0,0;2,9;81;4,8;0,35;2,77;318;0;0;17,6;21,4;20,9;17,0;15,8;15,9;15,8;15,9;-41,5;13,9;1541
2021-09-04 11:00:00;16,2;101695;89;0,0101;0,0;2,5;101;4,5;-0,48;2,44;520;0;0;17,6;21,4;20,9;17,0;16,2;15,9;15,8;15,9;-41,7;13,8;1644
2021-09-04 12:00:00;18,6;101638;81;0,0106;0,0;2,8;94;5,4;-0,21;2,74;596;0;0;17,5;21,3;20,9;17,0;16,5;15,9;15,9;15,9;-42,0;13,8;1654
2021-09-04 13:00:00;19,6;101617;75;0,0106;0,0;2,7;71;5,1;0,85;2,45;549;0;0;17,3;21,3;20,8;17,0;16,6;15,9;16,1;15,9;-42,3;13,9;1725
2021-09-04 14:00:00;20,0;101595;71;0,0102;0,0;2,6;68;5,0;0,94;2,45;475;0;0;17,2;21,3;20,8;17,0;16,6;16,0;16,2;15,9;-42,6;13,9;1797
2021-09-04 15:00:00;20,2;101560;69;0,01;0,0;2,6;73;4,6;0,72;2,46;364;0;0;17,2;21,3;20,7;16,9;16,6;16,0;16,2;15,9;-42,7;13,9;1823
2021-09-04 16:00:00;20,0;101542;67;0,0096;0,0;2,5;62;4,1;1,14;2,22;204;0;0;17,1;21,3;20,7;16,9;16,6;16,0;16,2;15,9;-42,8;13,8;1822
2021-09-04 17:00:00;18,8;101538;71;0,0095;0,0;1,5;62;2,5;0,66;1,34;67;0;0;17,1;21,3;20,7;16,9;16,6;16,1;16,3;15,9;-42,9;13,7;1809
2021-09-04 18:00:00;16,8;101560;79;0,0093;0,0;1,2;59;1,9;0,6;1,0;3;0;0;17,0;21,3;20,7;16,9;16,4;16,1;16,3;15,9;-42,8;13,7;1682
2021-09-04 19:00:00;15,2;101625;86;0,0091;0,0;1,0;67;1,6;0,44;0,79;0;0;0;17,0;21,3;20,7;16,9;16,0;16,1;16,2;15,9;-42,7;13,7;1661
2021-09-04 20:00:00;14,5;101673;88;0,0089;0,0;0,9;81;1,8;0,16;0,9;0;0;0;17,0;21,3;20,7;16,9;15,6;16,1;16,1;15,9;-42,6;13,6;1661
2021-09-04 21:00:00;13,7;101685;90;0,0087;0,0;1,0;54;1,6;0,54;0,77;0;0;0;17,0;21,3;20,7;16,9;15,3;16,1;15,9;15,9;-42,6;13,5;1610
2021-09-04 22:00:00;12,8;101695;94;0,0085;0,0;1,2;95;1,9;-0,06;1,12;0;0;0;16,9;21,3;20,6;16,9;15,1;16,1;15,8;15,9;-42,5;13,4;1659
2021-09-04 23:00:00;12,3;101710;94;0,0083;0,0;1,1;64;1,7;0,52;1,0;0;0;0;16,9;21,3;20,6;16,9;14,9;16,1;15,6;15,9;-42,4;13,3;1629
2021-09-05 00:00:00;12,0;101710;96;0,0082;0,0;1,4;65;2,3;0,58;1,27;0;0;0;16,9;21,3;20,6;16,9;14,8;16,0;15,5;15,9;-42,4;13,1;1593
2021-09-05 01:00:00;11,4;101720;96;0,0079;0,0;1,2;70;1,8;0,39;1,08;0;0;0;16,9;21,3;20,6;16,9;14,7;15,9;15,4;15,9;-42,3;12,9;1647
2021-09-05 02:00:00;10,9;101730;97;0,0077;0,0;1,1;64;1,7;0,51;0,96;0;0;0;16,9;21,3;20,6;16,9;14,6;15,9;15,3;15,9;-42,2;12,9;1621
2021-09-05 03:00:00;10,6;101732;98;0,0076;0,02;1,2;68;1,9;0,43;1,1;0;0;0;16,9;21,3;20,6;16,9;14,4;15,8;15,2;15,9;-42,2;12,8;1708
2021-09-05 04:00:00;9,9;101750;98;0,0073;0,02;0,6;88;1,3;0,04;0,54;0;0;0;16,8;21,3;20,6;16,9;14,2;15,8;15,1;16,0;-42,2;12,8;1665
2021-09-05 05:00:00;10,0;101785;99;0,0074;0,04;0,9;72;1,4;0,27;0,77;31;0;0;16,8;21,3;20,6;16,9;14,0;15,7;15,0;15,9;-42,0;12,7;1632
2021-09-05 06:00:00;11,3;101802;100;0,0082;0,02;1,1;96;2,0;0,05;1,01;146;0;0;16,8;21,3;20,6;16,9;14,0;15,7;14,9;15,9;-42,0;12,7;1657
2021-09-05 07:00:00;13,4;101800;95;0,009;0,0;2,2;85;3,7;0,16;2,22;266;0;0;16,8;21,3;20,6;16,9;14,3;15,6;14,8;15,9;-42,0;12,5;1644
2021-09-05 08:00:00;15,3;101838;90;0,0096;0,0;2,3;77;3,9;0,5;2,28;387;0;0;16,8;21,3;20,6;16,9;14,7;15,5;14,9;15,9;-42,0;12,5;1672
2021-09-05 09:00:00;17,4;101882;82;0,01;0,0;2,2;78;4,5;0,47;2,14;503;0;0;16,8;21,3;20,5;16,9;15,0;15,5;15,0;15,9;-42,0;12,5;1604
2021-09-05 10:00:00;18,9;101890;76;0,0102;0,0;2,6;64;4,5;1,14;2,36;571;0;0;16,7;21,3;20,5;16,9;15,4;15,5;15,1;15,9;-42,3;12,4;1646
2021-09-05 11:00:00;20,2;101870;69;0,01;0,0;2,4;92;4,6;-0,1;2,38;600;0;0;16,6;21,3;20,5;16,9;15,7;15,5;15,3;15,9;-42,6;12,5;1737
2021-09-05 12:00:00;21,3;101840;67;0,0104;0,0;2,2;78;4,1;0,46;2,15;592;0;0;16,5;21,3;20,4;16,9;16,1;15,5;15,5;15,8;-43,0;12,5;1817
2021-09-05 13:00:00;22,0;101815;63;0,0102;0,0;2,2;67;4,7;0,84;2,04;545;0;0;16,4;21,2;20,4;16,9;16,3;15,5;15,6;15,8;-43,4;12,6;1712
2021-09-05 14:00:00;22,5;101803;59;0,0099;0,0;2,2;64;4,0;0,94;1,96;447;0;0;16,4;21,2;20,3;16,9;16,3;15,6;15,8;15,8;-43,6;12,6;1800
2021-09-05 15:00:00;22,5;101783;57;0,0096;0,0;2,1;59;3,9;1,05;1,8;329;0;0;16,3;21,2;20,3;16,9;16,4;15,7;15,9;15,8;-43,8;12,6;1820
2021-09-05 16:00:00;22,3;101792;55;0,0091;0,0;1,9;52;3,1;1,12;1,47;206;0;0;16,2;21,2;20,3;16,9;16,5;15,7;16,0;15,8;-44,0;12,7;1864
2021-09-05 17:00:00;21,3;101817;58;0,0089;0,0;1,2;58;1,9;0,65;1,04;84;0;0;16,2;21,2;20,2;16,9;16,4;15,8;16,0;15,8;-44,0;12,7;1795
2021-09-05 18:00:00;18,9;101840;68;0,0091;0,0;0,8;51;1,4;0,53;0,66;3;0;0;16,2;21,2;20,2;16,9;16,2;15,8;16,0;15,8;-44,0;12,6;1740
2021-09-05 19:00:00;17,4;101880;75;0,0092;0,0;1,0;46;1,5;0,72;0,74;0;0;0;16,1;21,2;20,2;16,9;15,8;15,9;16,0;15,8;-43,8;12,6;1671
2021-09-05 20:00:00;16,1;101950;80;0,009;0,0;1,1;47;1,8;0,77;0,84;0;0;0;16,1;21,2;20,2;16,9;15,5;15,9;15,9;15,8;-43,8;12,7;1661
2021-09-05 21:00:00;14,5;101967;87;0,0088;0,0;0,8;58;1,3;0,43;0,67;0;0;0;16,1;21,2;20,2;16,9;15,2;15,9;15,8;15,8;-43,7;12,7;1613
2021-09-05 22:00:00;13,6;101972;92;0,0087;0,0;0,8;60;1,4;0,43;0,64;0;0;0;16,2;21,2;20,2;16,9;15,0;15,9;15,6;15,8;-43,6;12,5;1591
2021-09-05 23:00:00;12,5;101962;95;0,0084;0,0;0,4;163;0,8;-0,01;0,36;0;0;0;16,2;21,2;20,2;16,9;14,7;15,9;15,5;15,8;-43,6;12,4;1576
2021-09-06 00:00:00;12,3;101967;96;0,0084;0,0;0,3;86;0,5;0,01;0,07;0;0;0;16,2;21,2;20,2;16,9;14,5;15,8;15,3;15,8;-43,5;12,4;1516
2021-09-06 01:00:00;11,5;101992;98;0,0082;0,0;0,5;324;0,8;0,37;-0,22;0;0;0;16,1;21,2;20,2;16,9;14,3;15,8;15,2;15,8;-43,5;12,5;1567
2021-09-06 02:00:00;10,5;102003;99;0,0077;0,0;0,3;118;0,6;-0,12;0,22;0;0;0;16,1;21,2;20,1;16,9;14,1;15,7;15,0;15,8;-43,4;12,5;1631
2021-09-06 03:00:00;10,2;101998;98;0,0075;0,0;0,5;244;0,8;0,17;0,06;0;0;0;16,1;21,2;20,1;16,9;13,9;15,7;14,9;15,8;-43,4;12,4;1578
2021-09-06 04:00:00;8,9;102015;100;0,007;0,02;0,4;167;0,6;-0,3;0,15;0;0;0;16,1;21,2;20,1;16,9;13,7;15,6;14,8;15,8;-43,3;12,3;1624
2021-09-06 05:00:00;8,6;102033;100;0,0068;0,02;0,3;210;0,5;-0,11;0,12;29;0;0;16,1;21,2;20,1;16,9;13,6;15,5;14,7;15,8;-43,3;12,3;1672
2021-09-06 06:00:00;10,5;102077;100;0,0078;0,02;0,5;270;1,0;0,27;-0,03;144;0;0;16,1;21,2;20,1;16,9;13,7;15,4;14,5;15,8;-43,2;12,4;1587
2021-09-06 07:00:00;14,4;102122;100;0,01;0,0;0,6;274;1,2;0,33;-0,08;282;0;0;16,1;21,2;20,1;16,9;14,0;15,4;14,5;15,8;-43,2;12,4;1575
2021-09-06 08:00:00;17,7;102170;93;0,0115;0,0;0,8;126;1,7;0,8;0,07;401;0;0;16,1;21,2;20,1;16,9;14,5;15,3;14,6;15,8;-43,2;12,4;1610
2021-09-06 09:00:00;19,3;102197;81;0,0111;0,0;1,2;13;2,5;1,13;0,29;483;0;0;16,1;21,2;20,1;16,9;14,9;15,3;14,7;15,8;-43,3;12,3;1658
2021-09-06 10:00:00;20,6;102173;72;0,0106;0,0;0,9;52;2,4;0,47;0,5;508;0;0;16,1;21,2;20,0;16,9;15,4;15,3;14,9;15,7;-43,6;12,2;1730
2021-09-06 11:00:00;21,1;102170;67;0,0103;0,0;1,2;105;2,9;1,12;0,34;544;0;0;16,0;21,2;20,0;16,9;15,7;15,3;15,1;15,7;-43,9;12,1;1696
2021-09-06 12:00:00;22,0;102150;62;0,0099;0,0;1,4;22;3,2;1,26;0,52;604;0;0;15,9;21,2;20,0;16,9;16,0;15,3;15,3;15,7;-44,4;12,0;1670
2021-09-06 13:00:00;22,8;102123;53;0,0091;0,0;1,3;20;2,8;1,22;0,44;535;0;0;15,9;21,2;19,9;16,9;16,3;15,4;15,5;15,7;-44,8;11,8;1712
2021-09-06 14:00:00;22,2;102122;56;0,0091;0,0;1,0;16;2,0;0,91;0,26;240;0;0;15,8;21,2;19,9;16,9;16,4;15,4;15,7;15,7;-45,0;11,8;1822
2021-09-06 15:00:00;21,5;102107;62;0,0098;0,0;1,0;339;2,1;0,92;-0,33;189;0;0;15,7;21,1;19,9;16,9;16,5;15,5;15,8;15,7;-45,0;11,8;1840
2021-09-06 16:00:00;21,6;102090;63;0,01;0,0;1,0;342;1,9;0,96;-0,29;176;0;0;15,7;21,1;19,8;16,9;16,5;15,6;15,9;15,7;-45,0;11,7;1811
2021-09-06 17:00:00;20,4;102080;71;0,0105;0,0;0,7;342;1,3;0,68;-0,22;43;0;0;15,7;21,1;19,8;16,9;16,5;15,6;16,0;15,6;-45,0;11,7;1746
2021-09-06 18:00:00;19,3;102090;75;0,0102;0,0;0,4;309;1,1;0,27;-0,29;3;0;0;15,6;21,1;19,8;16,9;16,4;15,7;16,0;15,7;-45,0;11,7;1699
2021-09-06 19:00:00;18,3;102125;81;0,0104;0,0;0,4;204;0,7;0,21;-0,18;0;0;0;15,6;21,1;19,8;16,9;16,3;15,8;16,0;15,7;-44,9;11,7;1625
2021-09-06 20:00:00;17,6;102180;86;0,0106;0,0;0,4;107;0,6;-0,03;0,23;0;0;0;15,6;21,1;19,8;16,9;16,2;15,8;16,0;15,7;-44,8;11,7;1689
2021-09-06 21:00:00;16,7;102177;88;0,0103;0,0;0,3;291;0,6;0,12;-0,24;0;0;0;15,6;21,1;19,8;16,9;16,1;15,8;16,0;15,7;-44,8;11,7;1631
2021-09-06 22:00:00;15,2;102163;92;0,0097;0,0;0,5;298;0,9;0,18;-0,35;0;0;0;15,6;21,1;19,8;16,9;15,8;15,8;15,9;15,7;-44,7;11,6;1633
2021-09-06 23:00:00;14,1;102167;95;0,0093;0,0;0,4;236;0,7;0,03;-0,03;0;0;0;15,6;21,1;19,8;16,9;15,5;15,9;15,8;15,7;-44,7;11,8;1632
2021-09-07 00:00:00;13,8;102140;96;0,0093;0,0;0,4;143;0,6;-0,28;0,22;0;0;0;15,6;21,1;19,8;16,9;15,2;15,9;15,7;15,7;-44,6;11,7;1646
2021-09-07 01:00:00;13,2;102120;99;0,0092;0,0;0,3;139;0,5;-0,18;0,2;0;0;0;15,6;21,1;19,7;16,9;15,1;15,8;15,6;15,7;-44,6;11,5;1556
2021-09-07 02:00:00;13,1;102123;100;0,0092;0,0;0,5;142;0,7;-0,26;0,34;0;0;0;15,6;21,1;19,7;16,9;15,1;15,8;15,5;15,7;-44,5;11,3;1627
2021-09-07 03:00:00;13,7;102118;100;0,0095;0,0;0,4;200;0,7;-0,12;-0,06;0;0;0;15,6;21,1;19,7;16,9;15,2;15,8;15,4;15,7;-44,5;11,3;1629
2021-09-07 04:00:00;14,0;102128;99;0,0096;0,0;0,4;98;0,6;-0,07;0,38;0;0;0;15,6;21,1;19,7;16,9;15,3;15,7;15,4;15,7;-44,5;11,2;1588
2021-09-07 05:00:00;13,7;102123;99;0,0095;0,0;0,2;274;0,4;0,0;-0,22;13;0;0;15,6;21,1;19,7;16,9;15,3;15,7;15,4;15,7;-44,4;11,1;1614
2021-09-07 06:00:00;14,6;102153;98;0,01;0,0;0,5;146;1,0;-0,02;0,38;55;0;0;15,6;21,1;19,7;16,9;15,3;15,7;15,4;15,7;-44,4;10,9;1584
2021-09-07 07:00:00;16,0;102197;95;0,0105;0,0;1,1;102;1,8;-0,24;1,11;146;0;0;15,6;21,1;19,7;16,9;15,5;15,7;15,4;15,7;-44,3;10,8;1548
2021-09-07 08:00:00;18,1;102210;84;0,0107;0,0;1,3;120;2,2;-0,66;1,02;225;0;0;15,6;21,1;19,7;16,9;15,8;15,7;15,5;15,7;-44,4;10,8;1612
2021-09-07 09:00:00;20,3;102208;72;0,0105;0,0;1,8;122;3,1;-1,0;1,47;400;0;0;15,6;21,1;19,6;16,9;16,2;15,7;15,6;15,7;-44,6;10,8;1688
2021-09-07 10:00:00;21,7;102180;62;0,0099;0,0;2,2;123;3,8;-1,21;1,85;530;0;0;15,5;21,1;19,6;16,9;16,7;15,7;15,8;15,7;-44,9;10,9;1636
2021-09-07 11:00:00;22,6;102120;57;0,0096;0,0;2,1;118;4,6;-0,96;1,8;575;0;0;15,4;21,1;19,6;16,9;17,0;15,7;16,0;15,7;-45,4;10,9;1764
2021-09-07 12:00:00;23,6;102098;54;0,0096;0,0;1,5;120;3,3;-0,74;1,26;581;0;0;15,3;21,1;19,5;16,9;17,3;15,7;16,2;15,7;-46,0;11,0;1834
2021-09-07 13:00:00;23,9;102047;55;0,01;0,0;1,4;86;3,1;0,09;1,39;501;0;0;15,3;21,1;19,5;16,9;17,4;15,8;16,4;15,7;-46,4;11,1;1892
2021-09-07 14:00:00;23,7;101992;56;0,0101;0,0;2,3;76;4,2;0,49;2,19;423;0;0;15,2;21,0;19,4;16,8;17,3;15,9;16,5;15,7;-46,7;11,1;1868
2021-09-07 15:00:00;23,6;101940;56;0,01;0,0;2,3;95;4,1;-0,22;2,33;294;0;0;15,2;21,0;19,4;16,8;17,3;16,0;16,6;15,7;-47,0;11,1;1930
2021-09-07 16:00:00;23,4;101917;55;0,0097;0,0;2,2;104;3,9;-0,52;2,09;205;0;0;15,1;21,0;19,4;16,8;17,2;16,0;16,6;15,7;-47,1;11,2;1939
2021-09-07 17:00:00;22,2;101887;59;0,0097;0,0;1,6;95;2,7;-0,15;1,57;85;0;0;15,1;21,0;19,4;16,8;17,2;16,1;16,6;15,7;-47,1;11,1;1912
2021-09-07 18:00:00;20,4;101855;64;0,0093;0,0;1,0;95;1,6;-0,05;1,02;8;0;0;15,1;21,0;19,3;16,8;16,9;16,2;16,6;15,7;-47,0;11,1;1857
2021-09-07 19:00:00;18,2;101857;74;0,0094;0,0;0,3;107;0,8;-0,08;0,3;0;0;0;15,1;21,0;19,3;16,8;16,5;16,2;16,6;15,8;-47,0;11,1;1660
2021-09-07 20:00:00;17,3;101863;79;0,0095;0,0;0,5;58;0,9;0,25;0,42;0;0;0;15,1;21,0;19,3;16,8;16,2;16,2;16,4;15,8;-46,8;11,0;1717
2021-09-07 21:00:00;16,2;101852;83;0,0094;0,0;0,4;116;0,6;-0,16;0,32;0;0;0;15,0;21,0;19,3;16,8;16,0;16,2;16,3;15,8;-46,8;11,1;1629
2021-09-07 22:00:00;15,6;101828;84;0,0091;0,0;0,6;92;1,0;-0,02;0,59;0;0;0;15,1;21,0;19,3;16,8;15,7;16,2;16,2;15,8;-46,7;11,1;1664
2021-09-07 23:00:00;14,7;101780;87;0,0089;0,0;0,5;111;0,8;-0,2;0,43;0;0;0;15,0;21,0;19,3;16,8;15,5;16,2;16,0;15,8;-46,7;10,9;1611
2021-09-08 00:00:00;14,3;101752;89;0,0089;0,0;0,4;111;0,7;-0,14;0,38;0;0;0;15,0;21,0;19,3;16,8;15,4;16,2;15,9;15,8;-46,6;10,8;1660
2021-09-08 01:00:00;14,2;101727;88;0,0088;0,0;0,6;101;0,8;-0,11;0,56;0;0;0;15,0;21,0;19,3;16,8;15,2;16,1;15,8;15,8;-46,6;10,7;1607
2021-09-08 02:00:00;14,1;101705;90;0,0089;0,0;0,5;75;0,8;0,17;0,41;0;0;0;15,0;21,0;19,2;16,8;15,0;16,1;15,7;15,8;-46,5;10,7;1670
2021-09-08 03:00:00;13,6;101670;92;0,0088;0,0;0,9;96;1,3;-0,12;0,86;0;0;0;15,0;21,0;19,2;16,8;14,9;16,0;15,6;15,9;-46,5;10,5;1654
2021-09-08 04:00:00;13,0;101643;94;0,0086;0,0;0,7;115;0,9;-0,31;0,56;0;0;0;15,0;21,0;19,2;16,8;14,8;16,0;15,5;15,9;-46,5;10,5;1660
2021-09-08 05:00:00;12,7;101613;96;0,0087;0,0;0,7;128;0,9;-0,39;0,52;24;0;0;15,0;21,0;19,2;16,8;14,6;15,9;15,4;15,9;-46,4;10,6;1681
2021-09-08 06:00:00;14,9;101590;94;0,0098;0,0;0,8;130;1,6;-0,54;0,62;126;0;0;15,0;21,0;19,2;16,8;14,7;15,8;15,3;15,9;-46,3;10,6;1674
2021-09-08 07:00:00;17,8;101567;83;0,0104;0,0;1,6;141;2,5;-1,2;0,98;237;0;0;15,0;21,0;19,2;16,8;15,0;15,8;15,3;15,9;-46,4;10,6;1723
2021-09-08 08:00:00;20,2;101545;74;0,0107;0,0;2,0;131;3,0;-1,25;1,46;356;0;0;14,9;21,0;19,2;16,8;15,5;15,8;15,3;15,9;-46,4;10,5;1623